Weather History for K96D - October, 2012

Change the Weather History Date:

Monday, October 29, 2012

  Actual Average (KGAF) Record (KGAF)
Temperature  
Mean Temperature 35 °F -  
Max Temperature 44 °F 48 °F 74 °F (1950)
Min Temperature 26 °F 29 °F 8 °F (1988)
Degree Days  
Heating Degree Days 30    
Moisture  
Dew Point 30 °F    
Average Humidity 86    
Maximum Humidity 100    
Minimum Humidity 61    
Precipitation  
Precipitation 0.00 in - - ()
Sea Level Pressure  
Sea Level Pressure 30.18 in    
Wind  
Wind Speed 7 mph (ESE)    
Max Wind Speed 14 mph    
Max Gust Speed 17 mph    
Visibility 10 miles    
Events Snow    
Averages and records for this station are not official NWS values.
T = Trace of Precipitation, MM = Missing Value Source: NWS Daily Summary

Daily Weather History Graph

Daily Weather History Graph

Search for Another Location

Airport or City:

Trip Planner

Search our weather history database for the weather conditions in past years. The results will help you decide how hot, cold, wet, or windy it might be!

Date:

Astronomy

Oct. 29, 2012 Rise Set
Actual Time 8:14 AM CDT 6:15 PM CDT
Civil Twilight 7:41 AM CDT 6:47 PM CDT
Nautical Twilight 7:04 AM CDT 7:25 PM CDT
Astronomical Twilight 6:27 AM CDT 8:01 PM CDT
Moon 6:03 PM CDT (10/29) 8:09 AM CDT (10/29)
Length of Visible Light 11h 06m
Length of Day
10h 00m
Full, 100% of the Moon is Illuminated
Oct 29
Full
Oct 29
Full
Nov 6
Last Quarter
Nov 13
New
Nov 20
First Quarter

Hourly Weather History & Observations

Time (CDT) Temp. Windchill Dew Point Humidity Pressure Visibility Wind Dir Wind Speed Gust Speed Precip Events Conditions
12:15 AM 28.4 °F 21.2 °F 23.0 °F 80% 30.24 in 10.0 mi ESE 6.9 mph - N/A   Overcast
12:35 AM 28.4 °F 20.4 °F 23.0 °F 80% 30.24 in 10.0 mi ESE 8.1 mph - N/A   Overcast
12:55 AM 28.4 °F 21.2 °F 23.0 °F 80% 30.24 in 10.0 mi ESE 6.9 mph - N/A   Overcast
1:35 AM 28.4 °F 23.3 °F 23.0 °F 80% 30.23 in 10.0 mi East 4.6 mph - N/A   Overcast
1:55 AM 28.4 °F 22.2 °F 23.0 °F 80% 30.23 in 10.0 mi East 5.8 mph - N/A   Overcast
2:15 AM 28.4 °F 20.4 °F 23.0 °F 80% 30.23 in 10.0 mi ESE 8.1 mph - N/A Snow Light Snow
2:35 AM 28.4 °F 21.2 °F 24.8 °F 86% 30.23 in 10.0 mi East 6.9 mph - N/A Snow Light Snow
2:55 AM 28.4 °F 21.2 °F 24.8 °F 86% 30.22 in 10.0 mi East 6.9 mph - N/A   Overcast
3:35 AM 28.4 °F 23.3 °F 24.8 °F 86% 30.21 in 10.0 mi East 4.6 mph - N/A   Overcast
4:15 AM 28.4 °F 22.2 °F 24.8 °F 86% 30.21 in 10.0 mi East 5.8 mph - N/A Snow Light Snow
4:35 AM 28.4 °F 22.2 °F 24.8 °F 86% 30.21 in 7.0 mi ENE 5.8 mph - N/A Snow Light Snow
4:55 AM 26.6 °F 19.1 °F 24.8 °F 93% 30.21 in 10.0 mi East 6.9 mph - N/A Snow Light Snow
5:15 AM 26.6 °F 20.0 °F 26.6 °F 100% 30.20 in 9.0 mi East 5.8 mph - N/A Snow Light Snow
5:35 AM 26.6 °F 20.0 °F 26.6 °F 100% 30.20 in 6.0 mi ENE 5.8 mph - N/A Snow Light Snow
5:55 AM 26.6 °F 20.0 °F 26.6 °F 100% 30.20 in 5.0 mi East 5.8 mph - N/A Snow Light Snow
6:15 AM 26.6 °F 21.2 °F 26.6 °F 100% 30.20 in 9.0 mi East 4.6 mph - N/A Snow Light Snow
6:35 AM 28.4 °F 24.6 °F 28.4 °F 100% 30.20 in 9.0 mi ENE 3.5 mph - N/A Snow Light Snow
6:55 AM 28.4 °F 24.6 °F 28.4 °F 100% 30.20 in 10.0 mi ENE 3.5 mph - N/A   Mostly Cloudy
7:15 AM 28.4 °F 23.3 °F 28.4 °F 100% 30.20 in 10.0 mi East 4.6 mph - N/A   Mostly Cloudy
7:35 AM 28.4 °F 23.3 °F 28.4 °F 100% 30.20 in 6.0 mi East 4.6 mph - N/A Snow Light Snow
7:55 AM 28.4 °F 24.6 °F 28.4 °F 100% 30.19 in 10.0 mi East 3.5 mph - N/A   Mostly Cloudy
8:15 AM 28.4 °F 23.3 °F 28.4 °F 100% 30.19 in 10.0 mi East 4.6 mph - N/A Snow Light Snow
8:35 AM 28.4 °F 23.3 °F 28.4 °F 100% 30.19 in 10.0 mi East 4.6 mph - N/A   Overcast
8:55 AM 30.2 °F 25.4 °F 30.2 °F 100% 30.19 in 10.0 mi East 4.6 mph - N/A   Overcast
9:15 AM 32.0 °F 26.4 °F 32.0 °F 100% 30.18 in 10.0 mi East 5.8 mph - N/A   Overcast
9:35 AM 32.0 °F 25.6 °F 32.0 °F 100% 30.18 in 10.0 mi East 6.9 mph - N/A   Mostly Cloudy
9:55 AM 32.0 °F 25.6 °F 32.0 °F 100% 30.18 in 10.0 mi East 6.9 mph - N/A   Overcast
10:15 AM 32.0 °F 26.4 °F 32.0 °F 100% 30.19 in 10.0 mi East 5.8 mph - N/A   Overcast
10:35 AM 33.8 °F 27.7 °F 33.8 °F 100% 30.19 in 10.0 mi East 6.9 mph - N/A   Overcast
10:55 AM 35.6 °F 29.9 °F 35.6 °F 100% 30.19 in 10.0 mi SE 6.9 mph - N/A   Overcast
11:15 AM 37.4 °F 31.4 °F 35.6 °F 93% 30.18 in 10.0 mi ESE 8.1 mph - N/A   Overcast
11:55 AM 37.4 °F 30.3 °F 35.6 °F 93% 30.17 in 10.0 mi ESE 10.4 mph - N/A   Overcast
12:15 PM 39.2 °F 33.0 °F 35.6 °F 87% 30.17 in 10.0 mi SE 9.2 mph - N/A   Overcast
12:55 PM 41.0 °F 34.7 °F 35.6 °F 81% 30.16 in 10.0 mi SE 10.4 mph - N/A   Overcast
1:15 PM 42.8 °F 36.6 °F 35.6 °F 76% 30.15 in 10.0 mi ESE 11.5 mph - N/A   Scattered Clouds
1:35 PM 44.6 °F 38.1 °F 33.8 °F 66% 30.15 in 10.0 mi ESE 13.8 mph 17.3 mph N/A   Partly Cloudy
1:55 PM 44.6 °F 38.8 °F 33.8 °F 66% 30.14 in 10.0 mi SE 11.5 mph 17.3 mph N/A   Clear
2:15 PM 44.6 °F 38.1 °F 33.8 °F 66% 30.14 in 10.0 mi SE 13.8 mph - N/A   Clear
2:35 PM 44.6 °F 38.8 °F 35.6 °F 71% 30.14 in 10.0 mi ESE 11.5 mph - N/A   Clear
2:55 PM 44.6 °F 38.1 °F 32.0 °F 61% 30.14 in 10.0 mi SE 13.8 mph 17.3 mph N/A   Clear
3:15 PM 44.6 °F 38.1 °F 33.8 °F 66% 30.15 in 10.0 mi SE 13.8 mph - N/A   Clear
3:35 PM 44.6 °F 38.8 °F 33.8 °F 66% 30.14 in 10.0 mi SE 11.5 mph - N/A   Clear
4:15 PM 44.6 °F 38.8 °F 33.8 °F 66% 30.14 in 10.0 mi ESE 11.5 mph - N/A   Clear
4:35 PM 44.6 °F 39.2 °F 33.8 °F 66% 30.14 in 10.0 mi ESE 10.4 mph - N/A   Clear
4:55 PM 42.8 °F 37.5 °F 33.8 °F 70% 30.14 in 10.0 mi SE 9.2 mph - N/A   Clear
5:15 PM 41.0 °F 38.0 °F 32.0 °F 70% 30.14 in 10.0 mi East 4.6 mph - N/A   Clear
5:35 PM 41.0 °F 37.1 °F 32.0 °F 70% 30.14 in 10.0 mi East 5.8 mph - N/A   Clear
5:55 PM 37.4 °F 33.8 °F 32.0 °F 81% 30.15 in 10.0 mi East 4.6 mph - N/A   Clear
6:15 PM 37.4 °F 33.8 °F 32.0 °F 81% 30.15 in 10.0 mi ESE 4.6 mph - N/A   Mostly Cloudy
6:35 PM 37.4 °F 32.8 °F 32.0 °F 81% 30.15 in 10.0 mi ESE 5.8 mph - N/A   Mostly Cloudy
6:55 PM 35.6 °F 31.7 °F 32.0 °F 87% 30.15 in 10.0 mi ESE 4.6 mph - N/A   Mostly Cloudy
9:35 PM 35.6 °F 31.7 °F 32.0 °F 87% 30.16 in 10.0 mi ESE 4.6 mph - N/A   Mostly Cloudy
9:55 PM 35.6 °F 29.9 °F 32.0 °F 87% 30.15 in 10.0 mi ESE 6.9 mph - N/A   Mostly Cloudy
10:15 PM 35.6 °F 29.9 °F 32.0 °F 87% 30.15 in 10.0 mi SE 6.9 mph - N/A   Mostly Cloudy
10:35 PM 35.6 °F 29.9 °F 32.0 °F 87% 30.16 in 10.0 mi SE 6.9 mph - N/A   Mostly Cloudy
10:55 PM 35.6 °F 30.7 °F 32.0 °F 87% 30.16 in 10.0 mi SE 5.8 mph - N/A   Mostly Cloudy
11:15 PM 35.6 °F 30.7 °F 30.2 °F 81% 30.16 in 10.0 mi SE 5.8 mph - N/A   Mostly Cloudy
11:35 PM 35.6 °F 29.2 °F 30.2 °F 81% 30.16 in 10.0 mi SE 8.1 mph - N/A   Mostly Cloudy
11:55 PM 35.6 °F 28.0 °F 30.2 °F 81% 30.15 in 10.0 mi SE 10.4 mph - N/A   Mostly Cloudy